TELSTAR 18V (APSTAR 5C)

Last updated on Thu Mar 14 2024 00:02:40 GMT+0000 (Greenwich Mean Time)

1 43611U 18069A 24072.90596889 -.00000304 00000+0 00000+0 0 9994 2 43611 0.0231 158.3628 0001815 189.1364 287.6789 1.00269531 20324
UTC large
Height (km)
Speed (km/s)
/
Latitude / Longitude
Inclination (degrees)
Orbital Period (minutes)
Azimuth
Elevation
Range (km)
Doppler Factor

Next 0 passes for location: London (51.5072 / 0.1276)

Sorry there are no passes over London.